GW3760 Weather Reports


Display with metric or nautical units.
time (UTC)temp
F
wind
direction
speed
MPH
gust
MPH
rain 1hr
in
rain 24hr
in
rain mn
in
humidity
%
barometer
mb
20260507063009 55 41 2.0 6.0 0.00 0.00 0.00 78 1021.5
20260507061547 55 69 2.0 8.0 0.00 0.00 0.00 78 1021.6
20260507060048 55 38 1.0 6.0 0.00 0.00 0.00 78 1021.5
20260507054533 55 328 0.0 5.0 0.00 0.00 0.00 78 1021.4
20260507053016 55 354 1.0 5.0 0.00 0.00 0.00 78 1021.4
20260507051555 56 20 3.0 9.0 0.00 0.00 0.00 77 1021.4
20260507050027 56 343 2.0 6.0 0.00 0.00 0.00 77 1021.4
20260507044622 56 4 2.0 6.0 0.00 0.00 0.00 76 1021.6
20260507044502 56 18 1.0 6.0 0.00 0.00 0.00 76 1021.5
20260507043029 57 344 0.0 4.0 0.00 0.00 0.00 75 1021.4
20260507041553 57 340 2.0 5.0 0.00 0.00 0.00 75 1021.2
20260507040049 57 331 4.0 10.0 0.00 0.00 0.00 75 1021.0
20260507034544 58 340 2.0 6.0 0.00 0.00 0.00 75 1020.9
20260507033031 58 17 1.0 10.0 0.00 0.00 0.00 74 1020.6
20260507031510 59 359 2.0 8.0 0.00 0.00 0.00 74 1020.4
20260507024512 60 4 0.0 4.0 0.00 0.00 0.00 73 1020.0
20260507023052 61 320 2.0 4.0 0.00 0.00 0.00 72 1019.9
20260507021537 61 57 1.0 4.0 0.00 0.00 0.00 71 1019.8
20260507020058 62 310 1.0 5.0 0.00 0.00 0.00 69 1019.9
20260507014549 63 87 2.0 11.0 0.00 0.00 0.00 69 1020.0
20260507013016 64 350 6.0 11.0 0.00 0.00 0.00 68 1019.9
20260507011528 65 326 5.0 12.0 0.00 0.00 0.00 67 1019.9
20260507010004 65 346 2.0 9.0 0.00 0.00 0.00 68 1019.8
20260507004528 66 4 2.0 6.0 0.00 0.00 0.00 67 1019.8
20260507003040 67 339 3.0 8.0 0.00 0.00 0.00 66 1019.7
20260507001535 67 354 2.0 7.0 0.00 0.00 0.00 64 1019.7
20260507000012 67 135 1.0 5.0 0.00 0.00 0.00 66 1019.6
20260506234545 68 324 3.0 5.0 0.00 0.00 0.00 64 1019.7
20260506233057 68 97 1.0 4.0 0.00 0.00 0.00 62 1019.6
20260506231522 67 79 0.0 4.0 0.00 0.00 0.00 64 1019.8
20260506230103 68 202 0.0 4.0 0.00 0.00 0.00 63 1019.9
20260506230001 68 202 0.0 4.0 0.00 0.00 0.00 63 1020.0
20260506224541 68 238 0.0 3.0 0.00 0.00 0.00 65 1020.1
20260506223055 68 318 0.0 3.0 0.00 0.00 0.00 62 1020.3
20260506221533 68 193 1.0 5.0 0.00 0.00 0.00 64 1020.4
20260506220014 66 147 1.0 4.0 0.00 0.00 0.00 66 1020.5
20260506214533 65 173 3.0 6.0 0.00 0.00 0.00 67 1020.4
20260506213014 65 77 2.0 7.0 0.00 0.00 0.00 67 1020.5
20260506211535 67 148 1.0 5.0 0.00 0.00 0.00 67 1020.7
20260506210052 64 189 3.0 5.0 0.00 0.00 0.00 71 1021.0
20260506204535 64 318 1.0 5.0 0.00 0.00 0.00 71 1020.9
20260506203053 64 209 0.0 4.0 0.00 0.00 0.00 73 1020.9
20260506201513 63 98 1.0 4.0 0.00 0.00 0.00 72 1020.9
20260506200049 62 220 1.0 3.0 0.00 0.00 0.00 74 1021.0
20260506194517 63 175 0.0 4.0 0.00 0.00 0.00 74 1021.2
20260506193008 62 150 2.0 5.0 0.00 0.00 0.00 73 1021.3
20260506191543 61 236 1.0 6.0 0.00 0.00 0.00 74 1021.3
20260506190001 61 185 2.0 6.0 0.00 0.00 0.00 76 1021.1
20260506184547 60 198 1.0 7.0 0.00 0.00 0.00 76 1021.0
20260506183023 61 154 0.0 3.0 0.00 0.00 0.00 74 1021.0
20260506181605 61 195 1.0 5.0 0.00 0.00 0.00 75 1021.1
20260506180037 59 186 0.0 4.0 0.00 0.00 0.00 78 1021.0
20260506174519 59 199 2.0 5.0 0.00 0.00 0.00 79 1021.1
20260506173124 58 156 0.0 4.0 0.00 0.00 0.00 81 1020.8
20260506171528 57 227 2.0 5.0 0.00 0.00 0.00 82 1020.7
20260506170046 57 205 1.0 3.0 0.00 0.00 0.00 82 1020.8
20260506164541 57 164 0.0 2.0 0.00 0.00 0.00 83 1021.0
20260506163031 57 220 1.0 5.0 0.00 0.00 0.00 83 1020.8
20260506161641 57 224 1.0 3.0 0.00 0.00 0.00 83 1020.7
20260506161500 57 224 1.0 3.0 0.00 0.00 0.00 83 1020.7
20260506160021 56 114 0.0 3.0 0.00 0.00 0.00 84 1020.4
20260506154555 56 179 2.0 6.0 0.00 0.00 0.00 84 1020.3
20260506153047 56 168 1.0 4.0 0.00 0.00 0.00 84 1020.3
20260506151507 56 164 0.0 2.0 0.00 0.00 0.00 84 1020.8
20260506150044 56 114 0.0 2.0 0.00 0.00 0.00 83 1020.8
20260506144600 56 95 1.0 2.0 0.00 0.00 0.00 83 1020.6
20260506144509 56 96 1.0 2.0 0.00 0.00 0.00 83 1020.5
20260506143045 56 338 3.0 5.0 0.00 0.00 0.00 83 1020.4
20260506141520 56 91 3.0 5.0 0.00 0.00 0.00 83 1019.9
20260506140043 56 73 2.0 4.0 0.00 0.00 0.00 84 1019.9
20260506134517 56 80 2.0 4.0 0.00 0.00 0.00 84 1019.8
20260506133003 56 96 0.0 3.0 0.00 0.00 0.00 84 1019.7
20260506131528 56 72 0.0 2.0 0.00 0.00 0.00 84 1019.5
20260506130052 56 104 0.0 4.0 0.00 0.00 0.00 83 1019.5
20260506124534 56 102 0.0 1.0 0.00 0.00 0.00 83 1019.4
20260506123051 57 102 0.0 0.0 0.00 0.00 0.00 82 1019.3
20260506121528 57 102 0.0 0.0 0.00 0.00 0.00 83 1019.4
20260506120009 57 102 0.0 0.0 0.00 0.00 0.00 82 1019.2
20260506114526 57 102 0.0 0.0 0.00 0.00 0.00 82 1019.1
20260506113006 57 102 0.0 2.0 0.00 0.00 0.00 82 1019.0
20260506111526 57 102 0.0 0.0 0.00 0.00 0.00 81 1018.9
20260506110004 57 102 0.0 1.0 0.00 0.00 0.00 82 1018.7
20260506104527 57 102 0.0 0.0 0.00 0.00 0.00 82 1018.5
20260506103055 57 102 0.0 0.0 0.00 0.00 0.00 81 1018.3
20260506101521 57 102 0.0 1.0 0.00 0.00 0.00 81 1018.0
20260506094521 58 146 0.0 2.0 0.00 0.00 0.00 80 1017.9
20260506093039 58 116 0.0 3.0 0.00 0.00 0.00 80 1017.8
20260506091548 58 85 0.0 2.0 0.00 0.00 0.00 80 1017.8
20260506090027 59 96 0.0 4.0 0.00 0.00 0.00 79 1017.7
20260506084607 59 74 1.0 3.0 0.00 0.00 0.00 79 1017.6
20260506083032 59 276 0.0 0.0 0.00 0.00 0.00 79 1017.7
20260506081509 60 276 0.0 0.0 0.00 0.00 0.00 79 1017.7
20260506073037 60 276 0.0 0.0 0.00 0.00 0.00 79 1017.3
20260506071552 60 276 0.0 0.0 0.00 0.00 0.00 79 1017.4